Location: Asheville, NC
(35.6000°N, 82.5500°W)
Time: 09:18:40
(UTC-04:00)

Vanguard 1 Rocket - Pass Details

Date: 10 March 2018
Orbit: 653 x 4224 km, 34.3° (Epoch: 24 June)

Event Time Altitude Azimuth Distance (km) Brightness Sun altitude
Exits shadow 04:00:00 20° 202° (SSW) 6,400 11.3 -34.3°
Drops below altitude 10° 04:08:11 10° 183° (S) 6,881 11.6 -32.8°
Sets 04:14:46 0° 170° (S) 7,458 12.0 -31.5°
